Back to catalog

SCOUT G-1 DEB

AlivePO
NORAD 15950·DEBRIS·🇺🇸 United States

Launched Aug 3, 1985 from Vandenberg Space Force Base

Loading…

Next Passes (next 24 hours)

TLE

FreshSource: Space-Track

Epoch: Sep 14, 2026, 12:42 UTC

1 15950U 85066D   26257.52951510  .00003943  00000-0  18431-2 0  9993
2 15950  89.8373 292.2880 0074830 276.2455  83.0215 14.18729009 55723

Track SCOUT G-1 DEB in real time with AllMySat

Download on the App Store